EJA40 KTEX-TNCM

Flight info

Callsign EJA40
Flight time N/A
Altitude 41000
Route HBU J28 PUB J17 PNH J58 HRV Q105 BLVNS Q102 FEMID Y290 UCRAZ/N0487F450 Y290 HAGIT Y308 ACONY
Aircraft C750/M-SBDE3FGHRWXY/S

Departure

Time 2026-04-27 17:25
Airport Telluride Regional Airport (KTEX)

Arrival

Time N/A
Airport Princess Juliana International Airport (TNCM)
Time Latitude Longitude Altitude Speed Heading
2026-04-27 17:15 37.95391 -107.90095 9054 ft 0 kts 12°
2026-04-27 17:20 37.95385 -107.90097 9054 ft 0 kts 12°
2026-04-27 17:20 37.95386 -107.90102 9057 ft 2 kts 294°
2026-04-27 17:20 37.95372 -107.90107 9055 ft 0 kts 197°
2026-04-27 17:22 37.95365 -107.90110 9054 ft 4 kts 192°
2026-04-27 17:22 37.95332 -107.90080 9055 ft 9 kts 122°
2026-04-27 17:22 37.95312 -107.89994 9058 ft 11 kts 104°
2026-04-27 17:23 37.95292 -107.89889 9062 ft 13 kts 103°
2026-04-27 17:23 37.95267 -107.89773 9068 ft 15 kts 104°
2026-04-27 17:23 37.95225 -107.89671 9072 ft 11 kts 156°
2026-04-27 17:23 37.95144 -107.89688 9071 ft 9 kts 191°
2026-04-27 17:24 37.95138 -107.89728 9070 ft 20 kts 283°
2026-04-27 17:24 37.95248 -107.90241 9048 ft 104 kts 283°
2026-04-27 17:24 37.95499 -107.91379 9036 ft 154 kts 282°
2026-04-27 17:24 37.95772 -107.92737 9331 ft 160 kts 280°
2026-04-27 17:25 37.96040 -107.94124 9856 ft 166 kts 283°
2026-04-27 17:25 37.96402 -107.95533 10535 ft 166 kts 287°
2026-04-27 17:25 37.96912 -107.96858 10989 ft 171 kts 301°
2026-04-27 17:25 37.97767 -107.97913 11643 ft 175 kts 324°
2026-04-27 17:26 37.98525 -107.98344 11955 ft 188 kts 342°
2026-04-27 17:26 37.99965 -107.98286 11856 ft 236 kts 20°
2026-04-27 17:26 38.01340 -107.96904 11838 ft 272 kts 52°
2026-04-27 17:26 38.02396 -107.94776 11977 ft 297 kts 62°
2026-04-27 17:27 38.03403 -107.92410 12348 ft 314 kts 62°
2026-04-27 17:27 38.04552 -107.89949 12538 ft 335 kts 58°
2026-04-27 17:27 38.05845 -107.87357 12604 ft 358 kts 58°
2026-04-27 17:27 38.07199 -107.84590 12761 ft 376 kts 59°
2026-04-27 17:28 38.08539 -107.81729 13446 ft 378 kts 60°
2026-04-27 17:28 38.09892 -107.78849 14045 ft 382 kts 59°
2026-04-27 17:28 38.12675 -107.73064 15129 ft 388 kts 59°
2026-04-27 17:29 38.14074 -107.70114 15672 ft 392 kts 59°
2026-04-27 17:29 38.15490 -107.67120 16184 ft 398 kts 58°
2026-04-27 17:29 38.16925 -107.64101 16744 ft 402 kts 58°
2026-04-27 17:29 38.18385 -107.61033 17290 ft 407 kts 58°
2026-04-27 17:30 38.19855 -107.57934 17848 ft 413 kts 58°
2026-04-27 17:30 38.22851 -107.51598 18926 ft 421 kts 58°
2026-04-27 17:30 38.24369 -107.48385 19463 ft 426 kts 58°
2026-04-27 17:31 38.25902 -107.45145 20025 ft 429 kts 58°
2026-04-27 17:31 38.27445 -107.41878 20616 ft 432 kts 58°
2026-04-27 17:31 38.28997 -107.38581 21100 ft 437 kts 58°
2026-04-27 17:31 38.30566 -107.35246 21585 ft 441 kts 58°
2026-04-27 17:32 38.32148 -107.31886 22099 ft 444 kts 58°
2026-04-27 17:32 38.35348 -107.25072 23095 ft 451 kts 58°
2026-04-27 17:32 38.36941 -107.21673 23586 ft 455 kts 58°
2026-04-27 17:33 38.38571 -107.18190 23982 ft 458 kts 58°
2026-04-27 17:33 38.40212 -107.14686 24385 ft 462 kts 58°
2026-04-27 17:33 38.41865 -107.11150 24774 ft 466 kts 58°
2026-04-27 17:33 38.43362 -107.07464 25114 ft 471 kts 67°
2026-04-27 17:34 38.44358 -107.03480 25528 ft 474 kts 77°
2026-04-27 17:34 38.44832 -106.99299 25908 ft 477 kts 88°
2026-04-27 17:34 38.44777 -106.95068 26290 ft 478 kts 96°
2026-04-27 17:34 38.44553 -106.90807 26672 ft 482 kts 96°
2026-04-27 17:35 38.44338 -106.86531 26931 ft 486 kts 96°
2026-04-27 17:35 38.44126 -106.82212 27285 ft 490 kts 96°
2026-04-27 17:35 38.43903 -106.77847 27649 ft 494 kts 96°
2026-04-27 17:35 38.43671 -106.73464 28046 ft 497 kts 96°
2026-04-27 17:36 38.43440 -106.69046 28414 ft 501 kts 96°
2026-04-27 17:36 38.43211 -106.64600 28817 ft 504 kts 96°
2026-04-27 17:36 38.42976 -106.60123 29186 ft 508 kts 96°
2026-04-27 17:36 38.42735 -106.55613 29551 ft 511 kts 96°
2026-04-27 17:37 38.42491 -106.51073 29917 ft 515 kts 96°
2026-04-27 17:37 38.42249 -106.46560 30232 ft 519 kts 96°
2026-04-27 17:37 38.42000 -106.41950 30498 ft 523 kts 96°
2026-04-27 17:37 38.41745 -106.37305 30758 ft 527 kts 97°
2026-04-27 17:38 38.41483 -106.32582 30794 ft 538 kts 96°
2026-04-27 17:38 38.41220 -106.27816 31246 ft 538 kts 96°
2026-04-27 17:38 38.40958 -106.23064 31716 ft 538 kts 97°
2026-04-27 17:38 38.40687 -106.18291 32073 ft 540 kts 97°
2026-04-27 17:39 38.40413 -106.13509 32471 ft 542 kts 97°
2026-04-27 17:39 38.40141 -106.08712 32829 ft 544 kts 97°
2026-04-27 17:39 38.39867 -106.03901 33236 ft 545 kts 97°
2026-04-27 17:39 38.39586 -105.99079 33615 ft 546 kts 97°
2026-04-27 17:40 38.39301 -105.94238 34009 ft 549 kts 97°
2026-04-27 17:40 38.39014 -105.89387 34271 ft 549 kts 97°
2026-04-27 17:40 38.38725 -105.84537 34621 ft 549 kts 97°
2026-04-27 17:40 38.38438 -105.79742 35013 ft 548 kts 98°
2026-04-27 17:41 38.38148 -105.74903 35424 ft 547 kts 98°
2026-04-27 17:41 38.37853 -105.70070 35816 ft 547 kts 98°
2026-04-27 17:41 38.37555 -105.65229 36215 ft 546 kts 98°
2026-04-27 17:41 38.37258 -105.60401 36604 ft 547 kts 98°
2026-04-27 17:42 38.36958 -105.55550 36955 ft 549 kts 98°
2026-04-27 17:42 38.36656 -105.50705 37403 ft 548 kts 98°
2026-04-27 17:42 38.36352 -105.45869 37850 ft 547 kts 98°
2026-04-27 17:42 38.36046 -105.41040 38300 ft 547 kts 98°
2026-04-27 17:43 38.35739 -105.36215 38687 ft 546 kts 98°
2026-04-27 17:43 38.35431 -105.31396 39008 ft 545 kts 98°
2026-04-27 17:43 38.35122 -105.26572 39286 ft 545 kts 98°
2026-04-27 17:43 38.34814 -105.21817 39540 ft 546 kts 98°
2026-04-27 17:44 38.34494 -105.16926 39720 ft 549 kts 98°
2026-04-27 17:44 38.34180 -105.12132 40063 ft 548 kts 99°
2026-04-27 17:44 38.33863 -105.07299 40438 ft 547 kts 99°
2026-04-27 17:44 38.33543 -105.02469 40778 ft 547 kts 99°
2026-04-27 17:45 38.33216 -104.97614 40781 ft 555 kts 99°
2026-04-27 17:45 38.32546 -104.87671 40800 ft 569 kts 98°
2026-04-27 17:46 38.31852 -104.77500 40831 ft 584 kts 98°
2026-04-27 17:46 38.31130 -104.67079 40863 ft 597 kts 98°
2026-04-27 17:47 38.30187 -104.56496 40859 ft 601 kts 106°
2026-04-27 17:47 38.27565 -104.46625 40862 ft 587 kts 122°
2026-04-27 17:48 38.23121 -104.38125 40826 ft 568 kts 140°
2026-04-27 17:48 38.17278 -104.31682 40844 ft 547 kts 156°
2026-04-27 17:49 38.10676 -104.27144 40830 ft 535 kts 163°
2026-04-27 17:49 38.04000 -104.22919 40781 ft 543 kts 158°
2026-04-27 17:50 37.97679 -104.17580 40783 ft 539 kts 161°
2026-04-27 17:50 37.90819 -104.14393 40781 ft 514 kts 178°
2026-04-27 17:50 37.87323 -104.13811 40775 ft 501 kts 186°
2026-04-27 17:51 37.83886 -104.13901 40776 ft 488 kts 194°
2026-04-27 17:51 37.80577 -104.14645 40776 ft 476 kts 203°
2026-04-27 17:51 37.77531 -104.15984 40790 ft 464 kts 211°
2026-04-27 17:51 37.74699 -104.17927 40788 ft 452 kts 220°
2026-04-27 17:52 37.70204 -104.23158 40804 ft 438 kts 233°
2026-04-27 17:52 37.66334 -104.29005 40789 ft 430 kts 236°
2026-04-27 17:53 37.63026 -104.35282 40786 ft 429 kts 243°
2026-04-27 17:53 37.60115 -104.41848 40783 ft 431 kts 239°
2026-04-27 17:54 37.56301 -104.47734 40779 ft 437 kts 230°
2026-04-27 17:54 37.51597 -104.52615 40782 ft 446 kts 220°
2026-04-27 17:55 37.46051 -104.56319 40787 ft 458 kts 210°
2026-04-27 17:55 37.39831 -104.58574 40789 ft 473 kts 199°
2026-04-27 17:56 37.33146 -104.59135 40784 ft 492 kts 188°
2026-04-27 17:56 37.29704 -104.58709 40778 ft 503 kts 181°
2026-04-27 17:56 37.26245 -104.57774 40867 ft 512 kts 176°
2026-04-27 17:57 37.19531 -104.54350 40868 ft 533 kts 162°
2026-04-27 17:57 37.16362 -104.51836 40864 ft 546 kts 155°
2026-04-27 17:57 37.13392 -104.48784 40871 ft 559 kts 147°
2026-04-27 17:58 37.10689 -104.45209 40869 ft 572 kts 139°
2026-04-27 17:58 37.08324 -104.41149 40860 ft 583 kts 131°
2026-04-27 17:58 37.04475 -104.32084 40870 ft 591 kts 125°
2026-04-27 17:59 37.00707 -104.22919 40841 ft 591 kts 126°
2026-04-27 17:59 36.96935 -104.13755 40811 ft 595 kts 125°
2026-04-27 18:00 36.93167 -104.04619 40810 ft 595 kts 125°
2026-04-27 18:00 36.89365 -103.95446 40808 ft 594 kts 125°
2026-04-27 18:01 36.85564 -103.86283 40807 ft 593 kts 126°
2026-04-27 18:01 36.81749 -103.77131 40805 ft 594 kts 125°
2026-04-27 18:02 36.77956 -103.68037 40807 ft 594 kts 125°
2026-04-27 18:02 36.74129 -103.58905 40791 ft 594 kts 125°
2026-04-27 18:03 36.70296 -103.49773 40775 ft 594 kts 126°
2026-04-27 18:03 36.66457 -103.40660 40786 ft 593 kts 125°
2026-04-27 18:04 36.62620 -103.31573 40777 ft 593 kts 125°
2026-04-27 18:04 36.58777 -103.22497 40777 ft 592 kts 125°
2026-04-27 18:05 36.54925 -103.13423 40898 ft 592 kts 125°
2026-04-27 18:05 36.53028 -103.08957 40777 ft 592 kts 125°
2026-04-27 18:05 36.51098 -103.04434 40756 ft 592 kts 125°
2026-04-27 18:06 36.47231 -102.95383 40781 ft 593 kts 125°
2026-04-27 18:06 36.43357 -102.86334 40776 ft 593 kts 126°
2026-04-27 18:07 36.39477 -102.77303 40775 ft 593 kts 126°
2026-04-27 18:07 36.35594 -102.68280 40782 ft 592 kts 126°
2026-04-27 18:08 36.31707 -102.59281 40784 ft 592 kts 126°
2026-04-27 18:08 36.27815 -102.50289 40822 ft 592 kts 126°
2026-04-27 18:09 36.23911 -102.41297 40834 ft 592 kts 126°
2026-04-27 18:09 36.20003 -102.32318 40831 ft 593 kts 126°
2026-04-27 18:10 36.16084 -102.23340 40812 ft 593 kts 126°
2026-04-27 18:10 36.12183 -102.14424 40772 ft 592 kts 126°
2026-04-27 18:11 36.08247 -102.05460 40792 ft 594 kts 126°
2026-04-27 18:11 36.04301 -101.96484 40785 ft 595 kts 126°
2026-04-27 18:12 36.00339 -101.87508 40795 ft 595 kts 126°
2026-04-27 18:12 35.96375 -101.78546 40784 ft 594 kts 126°
2026-04-27 18:13 35.92401 -101.69588 40759 ft 594 kts 126°
2026-04-27 18:13 35.88418 -101.60636 40780 ft 597 kts 126°
2026-04-27 18:14 35.85096 -101.53180 40837 ft 596 kts 126°
2026-04-27 18:14 35.81098 -101.44237 40858 ft 596 kts 126°
2026-04-27 18:15 35.77093 -101.35300 40866 ft 596 kts 126°
2026-04-27 18:15 35.73082 -101.26372 40852 ft 596 kts 126°
2026-04-27 18:16 35.69051 -101.17429 40844 ft 598 kts 126°
2026-04-27 18:16 35.65010 -101.08479 40879 ft 598 kts 126°
2026-04-27 18:17 35.60965 -100.99549 40873 ft 597 kts 126°
2026-04-27 18:17 35.56940 -100.90684 40872 ft 597 kts 126°
2026-04-27 18:18 35.52880 -100.81769 40843 ft 597 kts 126°
2026-04-27 18:18 35.48820 -100.72874 40815 ft 597 kts 126°
2026-04-27 18:19 35.44775 -100.64038 40778 ft 597 kts 126°
2026-04-27 18:19 35.40702 -100.55162 40759 ft 597 kts 126°
2026-04-27 18:20 35.36612 -100.46274 40752 ft 599 kts 126°
2026-04-27 18:20 35.32515 -100.37388 40753 ft 599 kts 126°
2026-04-27 18:21 35.28409 -100.28514 40750 ft 599 kts 127°
2026-04-27 18:21 35.24294 -100.19636 40747 ft 600 kts 126°
2026-04-27 18:22 35.20155 -100.10736 40739 ft 603 kts 126°
2026-04-27 18:22 35.16004 -100.01825 40740 ft 602 kts 126°
2026-04-27 18:23 35.11847 -99.92932 40730 ft 602 kts 126°
2026-04-27 18:23 35.07720 -99.84121 40734 ft 602 kts 126°
2026-04-27 18:24 35.03542 -99.75233 40732 ft 605 kts 126°
2026-04-27 18:24 34.99351 -99.66324 40731 ft 604 kts 126°
2026-04-27 18:25 34.95159 -99.57451 40726 ft 604 kts 126°
2026-04-27 18:25 34.90964 -99.48584 40726 ft 604 kts 126°
2026-04-27 18:26 34.86766 -99.39741 40722 ft 601 kts 126°
2026-04-27 18:26 34.82580 -99.30942 40791 ft 601 kts 126°
2026-04-27 18:27 34.78377 -99.22131 40762 ft 601 kts 126°
2026-04-27 18:27 34.74174 -99.13341 40764 ft 601 kts 126°
2026-04-27 18:28 34.69990 -99.04612 40760 ft 600 kts 126°
2026-04-27 18:28 34.65784 -98.95861 40718 ft 599 kts 126°
2026-04-27 18:29 34.61580 -98.87134 40743 ft 599 kts 126°
2026-04-27 18:29 34.57363 -98.78404 40739 ft 599 kts 126°
2026-04-27 18:30 34.53146 -98.69693 40736 ft 598 kts 126°
2026-04-27 18:30 34.48925 -98.60997 40753 ft 598 kts 126°
2026-04-27 18:31 34.44699 -98.52311 40753 ft 598 kts 126°
2026-04-27 18:31 34.40469 -98.43641 40757 ft 597 kts 126°
2026-04-27 18:32 34.36238 -98.34988 40756 ft 597 kts 126°
2026-04-27 18:32 34.32001 -98.26345 40764 ft 597 kts 126°
2026-04-27 18:33 34.27750 -98.17692 40766 ft 598 kts 126°
2026-04-27 18:33 34.23526 -98.09117 40772 ft 597 kts 127°
2026-04-27 18:34 34.19273 -98.00503 40765 ft 595 kts 127°
2026-04-27 18:34 34.15024 -97.91919 40771 ft 596 kts 127°
2026-04-27 18:35 34.10763 -97.83332 40774 ft 596 kts 127°
2026-04-27 18:35 34.06495 -97.74749 40776 ft 596 kts 127°
2026-04-27 18:36 34.02216 -97.66168 40772 ft 596 kts 127°
2026-04-27 18:36 33.97938 -97.57606 40742 ft 596 kts 126°
2026-04-27 18:37 33.93657 -97.49061 40772 ft 596 kts 126°
2026-04-27 18:37 33.89371 -97.40524 40777 ft 596 kts 126°
2026-04-27 18:38 33.85103 -97.32045 40771 ft 595 kts 127°
2026-04-27 18:38 33.80805 -97.23527 40770 ft 595 kts 127°
2026-04-27 18:39 33.76503 -97.15020 40776 ft 595 kts 127°
2026-04-27 18:39 33.72199 -97.06528 40835 ft 594 kts 126°
2026-04-27 18:40 33.67890 -96.98049 40826 ft 595 kts 127°
2026-04-27 18:40 33.63600 -96.89625 40787 ft 594 kts 127°
2026-04-27 18:41 33.59280 -96.81163 40794 ft 595 kts 127°
2026-04-27 18:41 33.54952 -96.72704 40795 ft 595 kts 127°
2026-04-27 18:42 33.51343 -96.65664 40792 ft 595 kts 127°
2026-04-27 18:42 33.46277 -96.55808 40798 ft 594 kts 127°
2026-04-27 18:43 33.41939 -96.47390 40799 ft 594 kts 127°
2026-04-27 18:43 33.37592 -96.38973 40805 ft 594 kts 126°
2026-04-27 18:44 33.33244 -96.30574 40805 ft 594 kts 127°
2026-04-27 18:44 33.28897 -96.22194 40822 ft 594 kts 127°
2026-04-27 18:45 33.24559 -96.13852 40828 ft 593 kts 127°
2026-04-27 18:45 33.20198 -96.05484 40832 ft 593 kts 126°
2026-04-27 18:46 33.15837 -95.97136 40832 ft 592 kts 127°
2026-04-27 18:46 33.11470 -95.88796 40831 ft 593 kts 127°
2026-04-27 18:47 33.07093 -95.80454 40826 ft 592 kts 127°
2026-04-27 18:47 33.02711 -95.72123 40811 ft 592 kts 127°
2026-04-27 18:48 32.98331 -95.63814 40821 ft 592 kts 126°
2026-04-27 18:48 32.93973 -95.55565 40830 ft 592 kts 127°
2026-04-27 18:49 32.89579 -95.47268 40836 ft 592 kts 127°
2026-04-27 18:49 32.85182 -95.38980 40833 ft 591 kts 127°
2026-04-27 18:50 32.80778 -95.30703 40827 ft 592 kts 126°
2026-04-27 18:50 32.76399 -95.22485 40832 ft 591 kts 126°
2026-04-27 18:51 32.71987 -95.14228 40828 ft 591 kts 126°
2026-04-27 18:51 32.67570 -95.05978 40829 ft 591 kts 126°
2026-04-27 18:52 32.63153 -94.97748 40823 ft 591 kts 127°
2026-04-27 18:53 32.56548 -94.85470 40825 ft 590 kts 126°
2026-04-27 18:53 32.52124 -94.77273 40846 ft 590 kts 126°
2026-04-27 18:54 32.47703 -94.69097 40873 ft 589 kts 126°
2026-04-27 18:54 32.43271 -94.60919 40849 ft 589 kts 126°
2026-04-27 18:55 32.38839 -94.52757 40858 ft 590 kts 126°
2026-04-27 18:55 32.34393 -94.44590 40864 ft 590 kts 126°
2026-04-27 18:56 32.29948 -94.36440 40867 ft 590 kts 126°
2026-04-27 18:56 32.25530 -94.28357 40873 ft 588 kts 126°
2026-04-27 18:57 32.21080 -94.20234 40886 ft 588 kts 126°
2026-04-27 18:57 32.16624 -94.12116 40882 ft 589 kts 126°
2026-04-27 18:58 32.12157 -94.03997 40892 ft 589 kts 126°
2026-04-27 18:58 32.07690 -93.95895 40890 ft 589 kts 126°
2026-04-27 18:59 32.03222 -93.87807 40886 ft 589 kts 126°
2026-04-27 18:59 31.98773 -93.79773 40873 ft 589 kts 126°
2026-04-27 19:00 31.94289 -93.71691 40893 ft 589 kts 126°
2026-04-27 19:00 31.89811 -93.63637 40894 ft 588 kts 126°
2026-04-27 19:01 31.85324 -93.55583 40896 ft 588 kts 126°
2026-04-27 19:01 31.80833 -93.47542 40900 ft 588 kts 126°
2026-04-27 19:02 31.76338 -93.39508 40910 ft 588 kts 126°
2026-04-27 19:02 31.71834 -93.31474 40919 ft 588 kts 126°
2026-04-27 19:03 31.67357 -93.23508 40924 ft 588 kts 126°
2026-04-27 19:03 31.62843 -93.15489 40915 ft 588 kts 126°
2026-04-27 19:04 31.59090 -93.08838 40910 ft 588 kts 126°
2026-04-27 19:04 31.54574 -93.00845 40917 ft 587 kts 125°
2026-04-27 19:05 31.50063 -92.92882 40914 ft 587 kts 126°
2026-04-27 19:05 31.45538 -92.84908 40932 ft 588 kts 125°
2026-04-27 19:06 31.41005 -92.76937 40943 ft 588 kts 126°
2026-04-27 19:06 31.36462 -92.68965 40940 ft 587 kts 126°
2026-04-27 19:07 31.31950 -92.61064 40937 ft 587 kts 125°
2026-04-27 19:07 31.27410 -92.53128 40937 ft 587 kts 125°
2026-04-27 19:08 31.22973 -92.45116 40935 ft 587 kts 124°
2026-04-27 19:08 31.18551 -92.37081 40942 ft 587 kts 124°
2026-04-27 19:09 31.14157 -92.29027 40956 ft 587 kts 124°
2026-04-27 19:09 31.09741 -92.21002 40974 ft 588 kts 124°
2026-04-27 19:10 31.05326 -92.12967 40968 ft 588 kts 123°
2026-04-27 19:10 31.00906 -92.04951 40968 ft 587 kts 124°
2026-04-27 19:11 30.96478 -91.96933 40965 ft 588 kts 124°
2026-04-27 19:11 30.92042 -91.88918 40947 ft 587 kts 124°
2026-04-27 19:12 30.87614 -91.80936 40950 ft 588 kts 124°
2026-04-27 19:12 30.83198 -91.72987 40959 ft 588 kts 124°
2026-04-27 19:13 30.78753 -91.65006 40967 ft 588 kts 124°
2026-04-27 19:13 30.74304 -91.57033 40973 ft 588 kts 124°
2026-04-27 19:14 30.69843 -91.49054 40969 ft 588 kts 124°
2026-04-27 19:14 30.65378 -91.41082 40969 ft 589 kts 124°
2026-04-27 19:15 30.60907 -91.33119 40972 ft 588 kts 124°
2026-04-27 19:15 30.56458 -91.25208 40989 ft 588 kts 124°
2026-04-27 19:16 30.51979 -91.17262 40989 ft 588 kts 124°
2026-04-27 19:16 30.47490 -91.09313 40997 ft 588 kts 124°
2026-04-27 19:17 30.43007 -91.01390 40986 ft 588 kts 124°
2026-04-27 19:17 30.38509 -90.93458 40963 ft 588 kts 124°
2026-04-27 19:18 30.34015 -90.85546 40978 ft 588 kts 124°
2026-04-27 19:18 30.29539 -90.77683 40978 ft 588 kts 124°
2026-04-27 19:19 30.25025 -90.69769 40994 ft 588 kts 124°
2026-04-27 19:19 30.20512 -90.61872 41031 ft 588 kts 124°
2026-04-27 19:20 30.16004 -90.53999 41028 ft 588 kts 124°
2026-04-27 19:20 30.11481 -90.46116 41027 ft 588 kts 124°
2026-04-27 19:21 30.06993 -90.38307 41017 ft 587 kts 124°
2026-04-27 19:21 30.02465 -90.30447 41029 ft 588 kts 124°
2026-04-27 19:22 29.97926 -90.22580 41030 ft 588 kts 124°
2026-04-27 19:22 29.93388 -90.14732 41028 ft 588 kts 124°
2026-04-27 19:23 29.88846 -90.06892 41031 ft 588 kts 124°
2026-04-27 19:23 29.84207 -89.99125 41014 ft 587 kts 129°
2026-04-27 19:24 29.78922 -89.91954 41015 ft 587 kts 132°
2026-04-27 19:24 29.73711 -89.84787 41020 ft 587 kts 130°
2026-04-27 19:25 29.68460 -89.77596 41024 ft 587 kts 131°
2026-04-27 19:25 29.63189 -89.70427 41024 ft 587 kts 130°
2026-04-27 19:26 29.57964 -89.63270 41025 ft 587 kts 131°
2026-04-27 19:26 29.52681 -89.56119 41017 ft 587 kts 131°
2026-04-27 19:27 29.47424 -89.48948 41019 ft 586 kts 131°
2026-04-27 19:27 29.42141 -89.41811 41018 ft 586 kts 131°
2026-04-27 19:28 29.36872 -89.34661 41021 ft 586 kts 131°
2026-04-27 19:28 29.31626 -89.27587 41019 ft 586 kts 131°
2026-04-27 19:29 29.26349 -89.20464 41029 ft 587 kts 131°
2026-04-27 19:29 29.21051 -89.13337 41015 ft 587 kts 131°
2026-04-27 19:30 29.15754 -89.06214 41019 ft 587 kts 131°
2026-04-27 19:30 29.10457 -88.99111 41018 ft 587 kts 131°
2026-04-27 19:31 29.05151 -88.92003 41020 ft 587 kts 131°
2026-04-27 19:31 28.99877 -88.84955 41034 ft 586 kts 131°
2026-04-27 19:32 28.94540 -88.77830 41009 ft 587 kts 131°
2026-04-27 19:32 28.89260 -88.70797 41025 ft 585 kts 131°
2026-04-27 19:33 28.83959 -88.63746 41023 ft 585 kts 131°
2026-04-27 19:33 28.78646 -88.56692 41023 ft 585 kts 131°
2026-04-27 19:34 28.73336 -88.49653 41021 ft 585 kts 131°
2026-04-27 19:34 28.68014 -88.42612 41032 ft 587 kts 131°
2026-04-27 19:35 28.62682 -88.35568 41022 ft 586 kts 131°
2026-04-27 19:35 28.57399 -88.28601 41024 ft 585 kts 131°
2026-04-27 19:36 28.52071 -88.21587 41024 ft 585 kts 131°
2026-04-27 19:36 28.46741 -88.14583 41027 ft 586 kts 131°
2026-04-27 19:37 28.41405 -88.07577 41035 ft 585 kts 131°
2026-04-27 19:37 28.36942 -87.99858 41023 ft 585 kts 114°
2026-04-27 19:38 28.34124 -87.91225 41036 ft 581 kts 104°
2026-04-27 19:38 28.31781 -87.82529 41041 ft 582 kts 107°
2026-04-27 19:39 28.28807 -87.73954 41037 ft 582 kts 109°
2026-04-27 19:39 28.26182 -87.65268 41038 ft 582 kts 106°
2026-04-27 19:40 28.23353 -87.56647 41037 ft 583 kts 109°
2026-04-27 19:40 28.20621 -87.48004 41037 ft 582 kts 107°
2026-04-27 19:41 28.17847 -87.39378 41038 ft 583 kts 108°
2026-04-27 19:41 28.15064 -87.30756 41038 ft 582 kts 107°
2026-04-27 19:42 28.12318 -87.22185 41038 ft 582 kts 108°
2026-04-27 19:42 28.09513 -87.13566 41038 ft 582 kts 108°
2026-04-27 19:43 28.06739 -87.04947 41037 ft 583 kts 108°
2026-04-27 19:43 28.03929 -86.96344 41038 ft 582 kts 108°
2026-04-27 19:44 28.01136 -86.87727 41029 ft 583 kts 108°
2026-04-27 19:44 27.98324 -86.79139 41037 ft 583 kts 108°
2026-04-27 19:45 27.95516 -86.70540 41033 ft 583 kts 108°
2026-04-27 19:45 27.92692 -86.61939 41037 ft 583 kts 108°
2026-04-27 19:46 27.89870 -86.53350 41045 ft 583 kts 108°
2026-04-27 19:46 27.87040 -86.44764 41045 ft 583 kts 108°
2026-04-27 19:47 27.84221 -86.36229 41045 ft 583 kts 108°
2026-04-27 19:47 27.81380 -86.27651 41044 ft 583 kts 108°
2026-04-27 19:48 27.78535 -86.19078 41051 ft 583 kts 108°
2026-04-27 19:48 27.75684 -86.10510 41046 ft 582 kts 108°
2026-04-27 19:49 27.72830 -86.01951 41042 ft 583 kts 108°
2026-04-27 19:49 27.69966 -85.93384 41043 ft 583 kts 108°
2026-04-27 19:50 27.67100 -85.84830 41045 ft 583 kts 108°
2026-04-27 19:50 27.64228 -85.76281 41045 ft 583 kts 108°
2026-04-27 19:51 27.61349 -85.67727 41039 ft 583 kts 108°
2026-04-27 19:51 27.58470 -85.59196 41039 ft 583 kts 108°
2026-04-27 19:52 27.56066 -85.52088 41039 ft 583 kts 108°
2026-04-27 19:52 27.53174 -85.43554 41040 ft 583 kts 108°
2026-04-27 19:53 27.48827 -85.30766 41035 ft 583 kts 108°
2026-04-27 19:53 27.45921 -85.22240 41045 ft 583 kts 108°
2026-04-27 19:54 27.43007 -85.13709 41038 ft 583 kts 108°
2026-04-27 19:54 27.40109 -85.05248 41040 ft 583 kts 108°
2026-04-27 19:55 27.37168 -84.96680 41030 ft 582 kts 108°
2026-04-27 19:55 27.34264 -84.88238 41026 ft 582 kts 108°
2026-04-27 19:56 27.31334 -84.79741 41031 ft 582 kts 109°
2026-04-27 19:56 27.28398 -84.71245 41031 ft 582 kts 109°
2026-04-27 19:57 27.25475 -84.62806 41041 ft 582 kts 108°
2026-04-27 19:57 27.22534 -84.54335 41033 ft 582 kts 108°
2026-04-27 19:58 27.19592 -84.45877 41038 ft 582 kts 109°
2026-04-27 19:58 27.16640 -84.37412 41034 ft 582 kts 109°
2026-04-27 19:59 27.13679 -84.28941 41042 ft 582 kts 109°
2026-04-27 19:59 27.10717 -84.20485 41029 ft 582 kts 108°
2026-04-27 20:00 27.07748 -84.12029 41028 ft 582 kts 109°
2026-04-27 20:00 27.04792 -84.03627 41026 ft 582 kts 109°
2026-04-27 20:01 27.01816 -83.95190 41031 ft 581 kts 109°
2026-04-27 20:01 26.98838 -83.86762 41022 ft 581 kts 109°
2026-04-27 20:02 26.95855 -83.78340 41020 ft 581 kts 109°
2026-04-27 20:02 26.92863 -83.69912 41020 ft 581 kts 109°
2026-04-27 20:03 26.89869 -83.61498 41023 ft 581 kts 109°
2026-04-27 20:03 26.86875 -83.53098 41041 ft 581 kts 109°
2026-04-27 20:04 26.83869 -83.44689 41019 ft 581 kts 109°
2026-04-27 20:04 26.80854 -83.36270 41019 ft 581 kts 109°
2026-04-27 20:05 26.77840 -83.27872 41020 ft 581 kts 109°
2026-04-27 20:05 26.74821 -83.19477 41020 ft 581 kts 109°
2026-04-27 20:06 26.71800 -83.11096 41018 ft 581 kts 109°
2026-04-27 20:06 26.68774 -83.02720 41011 ft 581 kts 109°
2026-04-27 20:07 26.65740 -82.94337 41003 ft 582 kts 109°
2026-04-27 20:07 26.62717 -82.86005 41003 ft 581 kts 109°
2026-04-27 20:08 26.59669 -82.77623 41024 ft 581 kts 109°
2026-04-27 20:08 26.56619 -82.69251 41010 ft 582 kts 109°
2026-04-27 20:09 26.53564 -82.60885 41013 ft 582 kts 110°
2026-04-27 20:09 26.50504 -82.52523 41011 ft 582 kts 110°
2026-04-27 20:10 26.47436 -82.44155 41011 ft 582 kts 110°
2026-04-27 20:10 26.44364 -82.35795 41008 ft 581 kts 110°
2026-04-27 20:11 26.41290 -82.27449 41010 ft 581 kts 110°
2026-04-27 20:11 26.38213 -82.19108 41010 ft 581 kts 110°
2026-04-27 20:12 26.35152 -82.10831 41007 ft 581 kts 110°
2026-04-27 20:12 26.32061 -82.02490 40999 ft 583 kts 110°
2026-04-27 20:13 26.28963 -81.94147 40995 ft 582 kts 110°
2026-04-27 20:13 26.25863 -81.85816 40994 ft 582 kts 110°
2026-04-27 20:14 26.22757 -81.77489 40994 ft 582 kts 110°
2026-04-27 20:14 26.19647 -81.69165 40994 ft 582 kts 110°
2026-04-27 20:15 26.16532 -81.60847 41002 ft 581 kts 110°
2026-04-27 20:15 26.13439 -81.52602 41007 ft 581 kts 110°
2026-04-27 20:16 26.10447 -81.44248 40989 ft 579 kts 105°
2026-04-27 20:16 26.08374 -81.35619 41003 ft 577 kts 101°
2026-04-27 20:17 26.06235 -81.27006 41017 ft 579 kts 103°
2026-04-27 20:17 26.04443 -81.19847 41003 ft 577 kts 102°
2026-04-27 20:18 26.01979 -81.09765 41003 ft 578 kts 103°
2026-04-27 20:18 25.99820 -81.01170 41003 ft 577 kts 102°
2026-04-27 20:19 25.97698 -80.92570 40998 ft 578 kts 103°
2026-04-27 20:19 25.95523 -80.83941 40998 ft 581 kts 103°
2026-04-27 20:20 25.93382 -80.75343 41000 ft 580 kts 103°
2026-04-27 20:20 25.91199 -80.66696 40999 ft 580 kts 103°
2026-04-27 20:21 25.89032 -80.58066 41001 ft 580 kts 103°
2026-04-27 20:21 25.86847 -80.49438 41004 ft 581 kts 103°
2026-04-27 20:22 25.84660 -80.40794 41001 ft 581 kts 103°
2026-04-27 20:22 25.82467 -80.32173 40998 ft 581 kts 103°
2026-04-27 20:23 25.80269 -80.23538 41002 ft 580 kts 103°
2026-04-27 20:23 25.78070 -80.14930 41009 ft 580 kts 104°
2026-04-27 20:24 25.75879 -80.06373 41006 ft 579 kts 104°
2026-04-27 20:24 25.73670 -79.97771 41007 ft 579 kts 104°
2026-04-27 20:25 25.71457 -79.89175 41007 ft 580 kts 104°
2026-04-27 20:25 25.69239 -79.80582 41008 ft 580 kts 104°
2026-04-27 20:26 25.67015 -79.71993 41001 ft 579 kts 104°
2026-04-27 20:26 25.64790 -79.63417 40997 ft 579 kts 104°
2026-04-27 20:27 25.62559 -79.54843 41000 ft 579 kts 104°
2026-04-27 20:27 25.60335 -79.46317 41004 ft 579 kts 104°
2026-04-27 20:28 25.58094 -79.37747 41002 ft 579 kts 105°
2026-04-27 20:28 25.56213 -79.30573 41009 ft 578 kts 105°
2026-04-27 20:29 25.52576 -79.21007 40996 ft 585 kts 118°
2026-04-27 20:29 25.48783 -79.13050 41007 ft 583 kts 116°
2026-04-27 20:30 25.45257 -79.04967 41018 ft 583 kts 117°
2026-04-27 20:30 25.41515 -78.97003 41009 ft 583 kts 117°
2026-04-27 20:31 25.37930 -78.88963 41006 ft 583 kts 117°
2026-04-27 20:31 25.34251 -78.81036 41006 ft 583 kts 117°
2026-04-27 20:32 25.30617 -78.73023 41007 ft 583 kts 117°
2026-04-27 20:32 25.26935 -78.65039 41008 ft 583 kts 118°
2026-04-27 20:33 25.23276 -78.57054 40999 ft 582 kts 117°
2026-04-27 20:33 25.19599 -78.49073 41001 ft 582 kts 118°
2026-04-27 20:34 25.15915 -78.41086 41001 ft 585 kts 118°
2026-04-27 20:34 25.12245 -78.33135 41005 ft 584 kts 118°
2026-04-27 20:35 25.08549 -78.25154 41003 ft 584 kts 118°
2026-04-27 20:35 25.04854 -78.17177 40999 ft 584 kts 118°
2026-04-27 20:36 25.01150 -78.09206 41001 ft 584 kts 118°
2026-04-27 20:36 24.97440 -78.01227 41001 ft 584 kts 118°
2026-04-27 20:37 24.93729 -77.93265 41016 ft 584 kts 118°
2026-04-27 20:37 24.90017 -77.85313 41016 ft 583 kts 118°
2026-04-27 20:38 24.86321 -77.77409 41013 ft 584 kts 118°
2026-04-27 20:38 24.82599 -77.69464 41012 ft 584 kts 118°
2026-04-27 20:39 24.78866 -77.61510 41003 ft 586 kts 119°
2026-04-27 20:39 24.75133 -77.53561 41010 ft 584 kts 119°
2026-04-27 20:40 24.72705 -77.46626 40994 ft 586 kts 105°
2026-04-27 20:40 24.71669 -77.37751 41002 ft 585 kts 88°
2026-04-27 20:41 24.72753 -77.28956 40999 ft 578 kts 71°
2026-04-27 20:41 24.75844 -77.20898 41004 ft 569 kts 55°
2026-04-27 20:42 24.80679 -77.14150 41004 ft 554 kts 38°
2026-04-27 20:42 24.86783 -77.09263 40994 ft 535 kts 21°
2026-04-27 20:43 24.93620 -77.06554 40996 ft 518 kts
2026-04-27 20:43 25.00667 -77.06143 41000 ft 500 kts 348°
2026-04-27 20:44 25.07263 -77.08009 41030 ft 483 kts 331°
2026-04-27 20:44 25.12871 -77.11860 41013 ft 471 kts 318°
2026-04-27 20:45 25.17813 -77.16583 41023 ft 468 kts 311°
2026-04-27 20:45 25.21928 -77.22088 41013 ft 463 kts 301°
2026-04-27 20:46 25.24921 -77.28354 41007 ft 460 kts 291°
2026-04-27 20:46 25.26588 -77.35112 41009 ft 460 kts 279°
2026-04-27 20:47 25.26835 -77.42193 41007 ft 463 kts 268°
2026-04-27 20:47 25.25587 -77.49196 41012 ft 469 kts 256°
2026-04-27 20:48 25.23589 -77.56065 41027 ft 469 kts 256°
2026-04-27 20:48 25.21626 -77.62950 41025 ft 472 kts 256°
2026-04-27 20:49 25.19616 -77.69866 41015 ft 472 kts 256°
2026-04-27 20:49 25.17584 -77.76709 41000 ft 474 kts 252°
2026-04-27 20:50 25.14317 -77.83102 40996 ft 485 kts 239°
2026-04-27 20:50 25.09615 -77.88499 40996 ft 494 kts 225°
2026-04-27 20:51 25.03676 -77.92497 40998 ft 510 kts 211°
2026-04-27 20:51 24.96763 -77.94715 40999 ft 527 kts 195°
2026-04-27 20:52 24.89331 -77.94796 40997 ft 544 kts 179°
2026-04-27 20:52 24.81943 -77.92564 40995 ft 559 kts 162°
2026-04-27 20:53 24.75204 -77.88118 40995 ft 573 kts 146°
2026-04-27 20:53 24.69654 -77.81745 40997 ft 582 kts 129°
2026-04-27 20:54 24.65746 -77.73945 41002 ft 586 kts 113°
2026-04-27 20:54 24.64326 -77.69799 41013 ft 586 kts 110°
2026-04-27 20:55 24.61545 -77.61378 41004 ft 586 kts 114°
2026-04-27 20:55 24.57927 -77.53374 41004 ft 584 kts 120°
2026-04-27 20:56 24.54307 -77.45367 40994 ft 585 kts 115°
2026-04-27 20:56 24.50969 -77.37212 40991 ft 584 kts 118°
2026-04-27 20:57 24.47355 -77.29219 40988 ft 585 kts 116°
2026-04-27 20:57 24.43965 -77.21103 41010 ft 584 kts 117°
2026-04-27 20:58 24.40423 -77.13161 41009 ft 584 kts 117°
2026-04-27 20:58 24.36981 -77.05090 41008 ft 584 kts 117°
2026-04-27 20:59 24.33441 -76.97065 41007 ft 584 kts 118°
2026-04-27 20:59 24.29957 -76.89020 41008 ft 584 kts 117°
2026-04-27 21:00 24.26438 -76.81000 41006 ft 583 kts 118°
2026-04-27 21:00 24.22931 -76.72978 41006 ft 584 kts 118°
2026-04-27 21:01 24.19414 -76.64961 41007 ft 584 kts 118°
2026-04-27 21:01 24.15892 -76.56953 41007 ft 583 kts 118°
2026-04-27 21:02 24.12394 -76.48990 41007 ft 583 kts 118°
2026-04-27 21:02 24.08862 -76.41002 41003 ft 583 kts 118°
2026-04-27 21:03 24.05342 -76.33013 41006 ft 583 kts 118°
2026-04-27 21:03 24.01806 -76.25034 41007 ft 583 kts 118°
2026-04-27 21:04 23.98269 -76.17046 41004 ft 583 kts 118°
2026-04-27 21:04 23.94728 -76.09075 41007 ft 583 kts 119°
2026-04-27 21:05 23.91183 -76.01100 41008 ft 583 kts 119°
2026-04-27 21:05 23.87635 -75.93139 41009 ft 583 kts 119°
2026-04-27 21:06 23.84104 -75.85223 41008 ft 583 kts 119°
2026-04-27 21:06 23.80549 -75.77272 41007 ft 582 kts 120°
2026-04-27 21:07 23.76982 -75.69320 41001 ft 582 kts 120°
2026-04-27 21:07 23.73425 -75.61364 41001 ft 583 kts 119°
2026-04-27 21:08 23.69854 -75.53429 40970 ft 582 kts 120°
2026-04-27 21:08 23.66289 -75.45498 41000 ft 582 kts 120°
2026-04-27 21:09 23.62715 -75.37574 41000 ft 582 kts 120°
2026-04-27 21:09 23.59160 -75.29702 41001 ft 582 kts 120°
2026-04-27 21:10 23.55575 -75.21782 40998 ft 582 kts 120°
2026-04-27 21:10 23.51996 -75.13873 41011 ft 582 kts 120°
2026-04-27 21:11 23.48408 -75.05971 40999 ft 582 kts 120°
2026-04-27 21:11 23.44817 -74.98067 40994 ft 581 kts 120°
2026-04-27 21:12 23.41227 -74.90186 40996 ft 581 kts 121°
2026-04-27 21:12 23.37631 -74.82297 40995 ft 581 kts 120°
2026-04-27 21:13 23.34057 -74.74475 40997 ft 581 kts 121°
2026-04-27 21:13 23.30335 -74.66696 40958 ft 576 kts 127°
2026-04-27 21:14 23.25725 -74.59630 40993 ft 577 kts 126°
2026-04-27 21:14 23.21895 -74.51928 41010 ft 580 kts 121°
2026-04-27 21:15 23.18097 -74.44178 41006 ft 579 kts 123°
2026-04-27 21:15 23.14269 -74.36547 41007 ft 579 kts 122°
2026-04-27 21:16 23.10485 -74.28821 41002 ft 578 kts 123°
2026-04-27 21:16 23.06630 -74.21153 41001 ft 579 kts 122°
2026-04-27 21:17 23.02831 -74.13448 41002 ft 579 kts 123°
2026-04-27 21:17 22.98981 -74.05778 41002 ft 579 kts 123°
2026-04-27 21:18 22.95158 -73.98081 41002 ft 579 kts 123°
2026-04-27 21:18 22.91310 -73.90411 40964 ft 578 kts 123°
2026-04-27 21:19 22.87511 -73.82806 40994 ft 576 kts 123°
2026-04-27 21:19 22.83678 -73.75174 40993 ft 576 kts 123°
2026-04-27 21:20 22.77923 -73.63715 40988 ft 576 kts 123°
2026-04-27 21:20 22.74085 -73.56094 40988 ft 576 kts 123°
2026-04-27 21:21 22.70247 -73.48478 40989 ft 576 kts 123°
2026-04-27 21:21 22.66398 -73.40858 40989 ft 576 kts 123°
2026-04-27 21:22 22.62548 -73.33242 40989 ft 576 kts 123°
2026-04-27 21:22 22.58724 -73.25694 40990 ft 575 kts 123°
2026-04-27 21:23 22.54877 -73.18107 40990 ft 575 kts 123°
2026-04-27 21:23 22.51023 -73.10520 40994 ft 573 kts 123°
2026-04-27 21:24 22.47188 -73.02976 40992 ft 572 kts 123°
2026-04-27 21:24 22.43346 -72.95441 40991 ft 572 kts 123°
2026-04-27 21:25 22.39512 -72.87920 40989 ft 570 kts 123°
2026-04-27 21:25 22.35677 -72.80419 40991 ft 570 kts 123°
2026-04-27 21:26 22.31862 -72.72957 40991 ft 571 kts 123°
2026-04-27 21:26 22.28013 -72.65451 40991 ft 570 kts 123°
2026-04-27 21:27 22.24175 -72.57966 40989 ft 570 kts 124°
2026-04-27 21:27 22.20332 -72.50492 40989 ft 568 kts 124°
2026-04-27 21:28 22.16493 -72.43029 40988 ft 569 kts 124°
2026-04-27 21:28 22.12646 -72.35566 40975 ft 569 kts 124°
2026-04-27 21:29 22.09457 -72.29385 40997 ft 566 kts 123°
2026-04-27 21:29 22.05004 -72.20769 40988 ft 565 kts 124°
2026-04-27 21:30 22.01798 -72.14572 40989 ft 565 kts 124°
2026-04-27 21:30 21.97970 -72.07185 40992 ft 565 kts 123°
2026-04-27 21:31 21.94135 -71.99794 40987 ft 565 kts 124°
2026-04-27 21:31 21.90297 -71.92407 40990 ft 565 kts 124°
2026-04-27 21:32 21.86455 -71.85023 40992 ft 564 kts 124°
2026-04-27 21:32 21.82642 -71.77706 40990 ft 564 kts 124°
2026-04-27 21:33 21.78800 -71.70342 40991 ft 564 kts 124°
2026-04-27 21:33 21.74951 -71.62976 40991 ft 564 kts 124°
2026-04-27 21:34 21.71101 -71.55618 40992 ft 563 kts 124°
2026-04-27 21:34 21.67263 -71.48290 40986 ft 561 kts 124°
2026-04-27 21:35 21.63426 -71.40979 40987 ft 562 kts 124°
2026-04-27 21:35 21.59611 -71.33716 40986 ft 562 kts 124°
2026-04-27 21:36 21.55765 -71.26413 40987 ft 562 kts 124°
2026-04-27 21:36 21.51919 -71.19106 40955 ft 562 kts 124°
2026-04-27 21:37 21.48082 -71.11829 40795 ft 550 kts 124°
2026-04-27 21:37 21.44342 -71.04758 40754 ft 550 kts 124°
2026-04-27 21:38 21.42493 -71.01257 40749 ft 525 kts 124°
2026-04-27 21:38 21.40736 -70.97908 40731 ft 513 kts 125°
2026-04-27 21:38 21.37117 -70.91129 40746 ft 533 kts 125°
2026-04-27 21:39 21.33417 -70.84114 40765 ft 552 kts 124°
2026-04-27 21:39 21.29582 -70.76902 40773 ft 555 kts 124°
2026-04-27 21:40 21.25746 -70.69681 40771 ft 557 kts 124°
2026-04-27 21:40 21.21904 -70.62466 40768 ft 557 kts 124°
2026-04-27 21:41 21.18058 -70.55249 40774 ft 558 kts 124°
2026-04-27 21:41 21.14231 -70.48077 40762 ft 557 kts 125°
2026-04-27 21:42 21.10384 -70.40879 40764 ft 557 kts 125°
2026-04-27 21:42 21.06528 -70.33674 40768 ft 557 kts 125°
2026-04-27 21:43 21.02678 -70.26489 40765 ft 557 kts 125°
2026-04-27 21:43 20.98820 -70.19299 40756 ft 557 kts 125°